Location: Ab? ar R?sh Ba?r?
(24.1861°N, 32.8847°E)
Time: 23:46:39
(UTC+00:00)

Milstar 3 Cent rocket - Pass Details

Date: 24 October 2021
Orbit: 706 x 5147 km, 28.3° (Epoch: 05 December)

Event Time Altitude Azimuth Distance (km) Brightness Sun altitude
Rises 18:13:30 0° 271° (W) 3,775 6.4 -41.4°
Reaches altitude 10° 18:15:34 10° 274° (W) 3,076 5.7 -41.9°
Enters shadow 18:21:18 60° 302° (WNW) 1,830 3.8 -43.2°
